STARLINK-32817, 63079

Orbit data source: Space-Track

STARLINK-32817, 63079 is a payload satellite owned by SpaceX/Seattle (US) in LEO that was launched on Sun, 23 Feb 2025 UTC via an FALCON 9 launch vehicle from the Air Force Western Test Range (AFWTR). Payload-class satellites include a variety of spacecraft equipped with specific instruments for various scientific and technological missions. These include communications satellites like Starlink; space stations such as the ISS; scientific satellites like the Hubble; Earth observation satellites from companies like Planet Labs, Umbra, and HawkEye 360; GPS; miniature CubeSats for education and research; and military/defense satellites.

Loading next visibility...
Identifier
63079, 2025-037C
Orbit
LEO
Country
Flag of USUS
Related business
Manufacturer
SpaceX/Seattle
Mission
Operational Commercial Communications
Bus & Motor
STARLINK V2M, Unknown motor
Mass
730 kg wet, ~700 kg dry
Launch date (UTC)
2025-02-23 (1 year ago)
Launch vehicle
FALCON 9
Launch site
Air Force Western Test Range (AFWTR)
Object type
Payload
Rocket body
Debris
Shape & HBR
Box + 2 Pan, 17.7 m
Radar Cross Section
33.884 m², Large (>1 m²)

Expand to show TLE details & history
Last TLE update: 15 hours ago

TLE from 15 hours ago
0 STARLINK-32817
1 63079U 25037C   26171.22875123  .00003327  00000-0  28642-3 0  9999
2 63079  70.0008  95.8244 0002948 260.6794  99.4031 14.98340683 73957
Epoch: 2026-06-20T05:29Z
TLE epoch observation values (Epoch: 2026-06-20T05:29:24.106Z)
Latitude
-0.00009°
Longitude
105.02755°
Altitude
574.782 km
Speed
7.574 km/s
True Right ascension
06h 23m 17s
True Declination
0° 00' 00"
Sunlit
Object was in daylight at epoch
Visualization orbit readout
Latitude
Unknown
Longitude
Unknown
Altitude
Unknown
Speed
Unknown
Apparent Right ascension
Unknown
Apparent Declination
Unknown
Sunlit
N/A
Visualization observer readout
Local Sidereal Time
07:17:32
Azimuth
Unknown
Elevation
Unknown
Doppler factor
Unknown
Orbital elements
Apogee altitude
572.019 km
Perigee altitude
567.923 km
Semi-major axis
6,948.108 km
Eccentricity
0.00029
Inclination
70.0008°
RAAN
95.8244°
Arg. of periapsis
260.6794°
True anomaly
99.43643°
Mean anomaly
99.4031°
Eccentric anomaly
99.41976°
Mean motion
3.74751 °/min
Orbital period
96.06 mins
BSTAR
0.00028642
Loading maneuver chart data...
Computing Atmospheric mass density...
Loading historical data...
Loading historical data...
Loading historical data...
Loading historical data...
Loading historical data...
Loading historical data...
Loading historical data...

Documentation

Showing up to 5 results
|